sat.trackr.live / text

‹ back to catalog

UNKNOWN

NORAD 89172

UNKNOWN UNKNOWN UNKNOWN

§ Identity

Operator
Country
Launch date
Launch site
Launch vehicle
Mass (kg)
RCS (m²)

External: N2YO · Heavens-Above

§ Orbital elements

Epoch: 2026-09-15T10:38:42.784800Z

Period
99.17 min
Inclination
82.0622°
Eccentricity
0.0274842
Mean motion
14.52016713 rev/d
Perigee alt
524.0 km
Apogee alt
914.1 km
Semi-major
7,097.2 km
B*
1.3053e-3
RAAN
320.8979°
Arg perigee
144.9573°
Mean anomaly
217.0059°
Rev number
64,198

§ Raw data

UNKNOWN1 89172U          26258.44355075  .00008705  00000+0  13053-2 0  99962 89172  82.0622 320.8979 0274842 144.9573 217.0059 14.52016713641989

JSON: /api/v1/satellites/89172 · /tle

For live sub-satellite position, see the globe view (requires WebGL).

§ Visibility from observer

Set your observer location to see the next 7 days of passes ≥ 10°. The values pass through the URL so the page stays shareable.

No JS? Fill the form by hand. The geolocation button needs JavaScript.